Regional Weather Roundup
Issued by NWS Midland/Odessa, TX

Skip options and go directly to product.
Home | Oldest Version | Next Version | Current Version | All | Text Only | Save Text | Print | Product List | Glossary On

Skip product version selection by date and time.   
410
ASUS44 KMAF 300110
RWRMAF
MIDLAND AREA WEATHER ROUNDUP
NATIONAL WEATHER SERVICE MIDLAND TX
800 PM CDT SUN MAR 29 2015

...IN SOUTHWEST TEXAS AND SOUTHEAST NEW MEXICO...

CITY           SKY/WX    TMP DP  RH WIND       PRES   REMARKS
ALPINE         MOCLDY    74  27  17 E3        30.20R
ANDREWS        FAIR      74  34  23 E12       30.12R
ARTESIA        PTCLDY    77  28  16 E7        30.09R
BIG SPRING     CLEAR     79  38  22 NE22G30   30.10R
CARLSBAD       CLEAR     77  33  20 E7        30.06R
DRYDEN           N/A     81  51  35 E6        30.01R
FORT STOCKTON  CLEAR     78  30  17 W6        30.05R
GUAD PASS      CLOUDY    70  23  17 NE12      30.21R
HOBBS          CLEAR     75  27  16 NE15G21   30.14R
MARFA          MOCLDY    77  18  10 N6        30.20R
MIDLAND AIRPK  CLEAR     77  35  22 NE16      30.09R
MIDLAND INTL   CLEAR     77  37  23 NE20      30.08R
ODESSA         PTCLDY    77  35  21 NE17G28   30.09R
PECOS          PTCLDY    83  32  16 N5        30.02R
PRESIDIO       FAIR      86  21   9 W6        30.02R
SEMINOLE       CLEAR     74  29  18 NE13      30.14R
SNYDER         CLEAR     74  39  28 NE16      30.11R
WINK           PTCLDY    80  30  16 NE9       30.03R
$$
...OTHER STATIONS IN TEXAS...

CITY           SKY/WX    TMP DP  RH WIND       PRES   REMARKS
ABILENE        CLEAR     75  47  36 N15       30.05R
AMARILLO       CLEAR     61  24  24 NE8       30.20R
AUSTIN         CLEAR     72  54  53 S12       30.02R
BROWNSVILLE    PTCLDY    72  65  78 S15       30.10R
CORPUS CHRISTI CLEAR     71  63  75 S22G32    30.07R
DALLAS FTW     PTCLDY    78  53  41 S12       29.97R
DEL RIO        CLEAR     82  54  37 SE8       29.96R
EL PASO        MOCLDY    83   9   6 W13       30.09R
HOUSTON INT    PTCLDY    73  59  61 S13G21    30.11R
LUBBOCK        PTCLDY    71  24  17 NE10      30.16R
SAN ANGELO     CLEAR     84  41  21 NE23G30   29.99R
SAN ANTONIO    CLEAR     77  58  51 SE15      30.02S
WACO           CLEAR     74  54  49 S15       30.01R
WICHITA FALLS  NOT AVBL
$$
...OTHER LOCATIONS IN NEW MEXICO...

CITY           SKY/WX    TMP DP  RH WIND       PRES   REMARKS
ALAMAGORDO     MOCLDY    77  16  10 E5        30.10S
ALBUQUERQUE    CLOUDY    74  15  10 SE10      30.13S
CANNON AFB     CLEAR     65  26  22 E14       30.21R
CLOVIS         CLEAR     63  25  23 E10       30.21R
HOLLOMAN AFB   MOCLDY    79  10   7 SE3       30.08R
ROSWELL        PTCLDY    75  29  18 E8        30.10R
RUIDOSO        CLOUDY    64  19  17 SE12      30.30R
SANTA FE       MOCLDY    66  22  18 SE23G35   30.20R
TRUTH OR CONSE CLOUDY    77  12   8 W10       30.11R
TUCUMCARI      MOCLDY    66  22  18 E9        30.20R
$$

USA.gov is the U.S. government's official web portal to all federal, state and local government web resources and services.